Regional Weather Roundup
Issued by NWS Huntsville, AL

Home | Current Version | Previous Version | Text Only | Print | Product List | Glossary On
Versions: 1 2 3 4 5 6 7 8 9 10 11 12 13 14 15 16 17 18 19 20 21 22 23 24 25 26 27 28 29 30 31 32 33 34 35 36 37 38 39 40 41 42 43 44 45 46 47 48 49 50
000
ASUS44 KHUN 280610
RWRHUN

WEATHER ROUNDUP FOR THE TENNESSEE VALLEY
NATIONAL WEATHER SERVICE HUNTSVILLE AL
1200 AM CST FRI NOV 28 2014

ALZ001>004-280700-
NORTHWEST ALABAMA

CITY           SKY/WX    TMP DP  RH WIND       PRES   REMARKS
SHOALS AIRPORT CLEAR     31  23  72 CALM      30.47F
6HR MIN TEMP:  30; 6HR MAX TEMP:  38;

$$

ALZ005>007-016-280700-
NORTH CENTRAL ALABAMA

CITY           SKY/WX    TMP DP  RH WIND       PRES   REMARKS
DECATUR AP     CLEAR     28  23  81 N5        30.46F WCI  23
6HR MIN TEMP:  28; 6HR MAX TEMP:  37;

HUNTSVILLE AP  PTCLDY    31  24  75 NE3       30.44F
6HR MIN TEMP:  31; 6HR MAX TEMP:  40;

HUN NWS/UAH      N/A     30  21  68 N5          N/A  WCI  25
MERIDIANVILLE  CLEAR     28  21  74 CALM      30.44F
REDSTONE ARSN  CLEAR     29  23  78 N8        30.43F WCI  21
VINEMONT AP    FAIR      29  24  81 N3        30.43F
$$

ALZ008>010-280700-
NORTHEAST ALABAMA

CITY           SKY/WX    TMP DP  RH WIND       PRES   REMARKS
ALBERTVILLE    CLEAR     32  30  93 N13       30.40S WCI  22
FORT PAYNE     CLEAR     30  21  69 NE3       30.40F
SCOTTSBORO AP  MOCLDY    30  21  69 N5        30.45S WCI  25
VALLEY HEAD      N/A     30 N/A N/A MISG        N/A
$$

TNZ076-096-097-280700-
SOUTHEASTERN MIDDLE TENNESSEE

CITY           SKY/WX    TMP DP  RH WIND       PRES   REMARKS
TULLAHOMA      CLEAR     25  18  74 CALM      30.42F
WINCHESTER     PTCLDY    25  19  80 CALM      30.43F
$$

...SURROUNDING SITES...

CITY           SKY/WX    TMP DP  RH WIND       PRES   REMARKS
ATLANTA        CLEAR     34  22  61 N10G22    30.36F WCI  26
ANNISTON       CLEAR     31  25  78 W5        30.42F WCI  26
BIRMINGHAM     CLEAR     33  26  75 CALM      30.44F
CHATTANOOGA    CLOUDY    33  20  58 N10       30.43F WCI  25
CORINTH        FAIR      28  25  86 CALM      30.46F
DALTON         CLOUDY    32  25  74 NW10      30.41S WCI  24
GADSDEN        CLEAR     28  21  74 CALM      30.43S
GOLDEN TRNGL   CLEAR     27  25  93 CALM      30.46R
HALEYVILLE     FAIR      27  23  84 CALM      30.45F
JACKSON TN     CLEAR     28  23  81 CALM      30.46F
LEWISBURG      FAIR      23  19  85 CALM      30.45F
MEMPHIS        PTCLDY    34  26  72 SE3       30.45F
MURFREESBORO   FAIR      27  22  81 CALM      30.45F
NASHVILLE      CLEAR     27  20  75 N5        30.46F WCI  22
OXFORD MS      FAIR      28  25  86 CALM      30.47F
ROME           CLEAR     31  23  72 N3        30.41F
SAVANNAH       CLEAR     25  21  86 CALM      30.46F
TUPELO         CLEAR     30  24  78 NE3       30.46F
TUSCALOOSA     CLEAR     32  27  81 CALM      30.46F
$$

...GULF COAST WEATHER...

CITY           SKY/WX    TMP DP  RH WIND       PRES   REMARKS
GULFPORT       CLEAR     41  32  70 N5        30.43F
PASCAGOULA     CLEAR     34  31  88 N7        30.43F WCI  28
MOBILE         CLEAR     37  32  82 N6        30.44S WCI  32
GULF SHORES    CLEAR     39  32  75 NE6       30.42S WCI  35
PENSACOLA      CLEAR     42  32  67 N12       30.41F
DESTIN         CLEAR     44  33  65 N15       30.41F
PANAMA CITY    CLEAR     44  34  70 N13G18    30.39F
APPALACHICOLA  CLEAR     47  32  56 N13       30.37F
$$



USA.gov is the U.S. government's official web portal to all federal, state and local government web resources and services.